Wind_Speed
45 47 48 49 49 48 47 45 42 38 35 32 30 28 26 25 25 25 26 28 29 29 30 31 32 33 36 41 45 49 52 55 57 58 58 57 57 56 57 58 60 61 61 61 62 62 62 63 63 63 63 63 63 61 61 61 60 60 60 61 62 61 58 55 53 51 48 43 40 38 36 38 36 36 35 29 27 19 14 21 28 29 26 21 22 25 23 24
45 47 48 49 49 48 47 44 41 38 35 32 29 27 26 26 25 25 25 26 27 28 29 30 30 30 31 34 39 44 47 51 54 57 58 59 58 58 57 57 59 60 61 62 62 63 63 64 64 64 64 64 64 62 62 62 62 62 62 64 64 61 58 54 52 51 49 45 42 40 38 39 40 39 35 28 25 21 17 20 25 27 26 23 22 22 23 24
45 47 48 49 49 48 47 44 41 37 34 31 29 27 26 26 26 26 26 27 27 28 30 31 32 31 30 30 33 38 42 46 50 53 56 59 60 60 59 58 59 59 60 62 62 63 64 65 65 65 65 64 64 64 64 63 64 64 64 66 65 61 58 55 54 52 50 47 44 42 40 40 42 42 38 32 30 29 27 25 23 26 31 31 25 22 23 26
44 46 48 49 49 48 46 43 40 37 33 31 29 27 26 26 26 27 28 28 29 29 31 32 33 34 33 32 32 33 37 41 44 48 52 55 58 61 61 60 60 59 60 61 62 63 63 65 65 66 66 65 65 65 65 64 64 65 66 67 64 60 59 57 55 53 51 49 47 44 42 42 42 43 41 37 34 33 29 29 28 28 33 33 29 26 26 29
44 46 48 49 49 48 46 43 39 36 33 30 28 27 27 27 27 28 29 29 30 31 31 32 34 35 35 35 34 34 34 37 39 42 46 50 54 58 61 62 62 61 61 61 61 63 63 65 66 66 67 66 66 66 66 65 65 66 66 65 62 61 61 59 56 54 52 50 49 47 44 43 42 42 42 42 40 34 25 20 21 25 28 29 29 28 30 34
44 45 47 49 49 48 46 43 39 35 32 30 28 27 27 28 29 29 30 31 31 31 31 31 32 34 35 35 35 35 35 36 37 38 41 45 49 52 56 60 62 63 63 62 62 62 63 64 65 66 67 67 67 67 66 66 67 67 66 64 63 63 63 60 58 56 54 52 51 49 47 43 41 42 42 44 42 34 24 17 16 19 22 28 30 27 31 37
44 45 47 49 49 48 46 43 39 36 32 30 29 29 29 29 30 31 32 31 31 30 29 29 29 30 32 32 33 33 35 35 36 37 39 41 44 47 50 54 58 62 63 64 63 63 63 64 65 66 66 67 67 67 66 66 67 67 66 65 64 64 64 62 59 58 56 54 53 50 48 47 43 42 42 45 41 33 29 24 20 22 23 28 32 30 32 38
44 45 47 49 49 48 47 44 40 36 33 31 30 31 32 32 33 33 32 31 30 29 28 27 26 26 27 28 29 30 32 33 34 35 37 40 41 43 46 48 52 57 60 62 64 64 64 64 66 67 67 67 67 67 67 67 67 67 66 65 66 66 66 64 61 60 58 56 54 52 51 51 47 42 41 44 44 38 34 28 24 26 25 26 29 31 35 39
44 45 47 49 49 48 46 43 40 36 33 31 31 32 33 34 34 33 31 30 30 30 28 27 25 24 23 24 25 27 30 30 31 31 32 36 40 43 45 45 47 50 54 58 61 63 65 65 66 67 67 67 67 66 67 67 68 68 67 67 69 69 68 66 64 62 60 58 56 54 54 53 50 45 44 43 43 44 37 28 25 27 25 24 25 27 31 37
44 45 47 48 49 48 46 43 39 36 33 32 31 32 33 33 32 30 30 31 30 30 29 27 25 23 22 22 23 26 30 29 28 29 30 32 35 40 44 45 45 46 49 53 57 60 62 65 67 67 66 66 67 66 66 67 68 68 69 70 72 72 70 67 65 63 61 60 58 56 56 55 52 50 49 45 42 44 40 31 28 28 27 27 28 28 29 33
44 45 47 48 48 47 45 42 39 36 34 33 32 33 33 32 29 28 29 29 29 28 28 27 26 24 23 23 25 28 30 27 26 27 29 29 31 36 40 42 44 45 47 48 51 55 58 61 65 66 67 67 67 66 66 67 68 69 70 71 72 71 70 68 67 64 63 62 59 58 57 57 55 54 52 47 43 44 42 38 35 33 31 32 32 30 29 31
44 45 47 48 48 47 45 42 39 36 34 33 33 33 32 29 28 28 29 28 27 27 27 27 27 27 25 25 29 32 30 28 26 26 27 28 28 31 35 38 41 43 45 47 48 50 53 56 61 64 66 68 67 66 66 67 68 68 69 71 71 71 70 68 66 65 64 63 60 58 60 61 59 58 55 49 46 46 45 42 41 40 36 35 33 30 28 29
44 45 47 48 48 47 44 41 39 36 35 34 33 32 30 27 27 27 28 27 27 28 29 29 29 29 27 27 31 34 32 31 29 27 28 28 27 27 30 33 36 39 42 45 47 48 50 52 56 60 63 66 67 67 67 68 68 68 68 70 70 70 70 68 66 66 65 63 61 60 63 64 60 59 57 52 49 49 49 42 40 43 41 36 33 30 29 30
44 45 47 48 48 47 44 41 38 36 35 35 33 31 27 25 26 27 27 28 29 31 32 32 32 32 29 29 33 34 33 33 31 30 30 29 28 27 28 29 31 34 37 40 43 46 48 50 53 55 59 63 66 67 68 68 69 68 69 70 69 70 69 67 67 67 66 64 62 62 65 63 59 58 57 55 54 52 52 45 37 42 43 39 35 31 31 33
44 45 47 48 48 46 43 40 37 36 36 35 33 29 25 25 26 27 28 29 32 34 35 35 35 33 31 31 34 34 34 33 32 31 30 31 31 29 29 29 29 30 32 35 38 41 44 47 50 52 55 59 62 65 68 69 70 69 70 70 69 70 69 67 66 67 66 65 64 65 66 60 56 56 56 58 58 55 54 48 38 41 43 41 39 35 34 34
44 45 47 48 48 46 43 39 37 36 36 34 31 27 25 25 26 27 29 32 34 36 37 36 34 33 31 31 32 33 34 34 33 30 29 31 32 32 32 32 32 31 30 32 34 37 40 43 46 50 52 55 59 62 66 69 71 71 70 70 70 71 70 67 66 65 65 65 65 66 64 59 55 55 57 60 60 57 57 52 44 45 45 42 41 39 39 38
44 45 47 48 48 46 42 39 36 35 35 33 29 26 25 25 26 28 30 33 35 36 36 33 31 30 28 27 27 28 30 31 31 30 28 29 30 32 33 34 35 35 34 34 34 36 38 40 43 47 50 53 57 59 64 68 71 72 71 71 71 71 70 68 65 64 64 64 65 65 64 61 59 57 57 59 58 58 61 59 52 50 48 44 42 41 40 41
44 45 47 49 49 46 42 38 35 35 35 31 28 26 25 25 27 29 31 33 33 34 33 30 27 25 24 24 24 23 23 24 25 27 28 28 29 31 32 34 35 37 37 37 38 38 39 41 43 45 48 52 56 59 63 67 68 70 72 73 73 72 70 68 66 64 63 63 63 65 66 65 63 60 58 56 56 57 59 60 56 54 53 48 45 44 43 43
44 46 48 49 49 46 42 37 35 35 34 30 27 26 26 26 28 29 30 31 30 31 30 27 24 22 23 22 20 18 17 18 18 20 23 25 27 29 30 32 34 35 37 38 39 41 42 43 44 47 48 50 53 57 60 62 63 65 68 72 73 71 70 68 66 64 62 62 64 65 66 66 65 62 59 55 55 55 56 58 57 57 56 52 48 48 47 47
44 46 48 49 49 46 41 37 35 35 33 30 28 26 26 27 29 29 28 28 29 28 27 26 22 21 22 21 18 16 15 15 15 16 18 20 22 24 25 27 30 32 35 36 38 40 43 45 46 47 47 47 49 52 56 58 59 61 63 68 71 71 70 68 66 63 61 63 65 65 65 65 64 62 59 57 56 55 56 56 56 58 60 58 55 53 52 51
44 46 48 49 49 45 41 37 35 34 33 30 28 27 27 28 29 27 24 25 27 26 24 23 21 20 21 20 19 18 16 18 18 19 20 20 22 24 25 26 28 30 33 36 38 39 41 44 45 44 44 46 47 50 54 57 59 60 62 65 69 71 71 70 67 64 62 64 65 64 64 64 63 61 59 58 58 56 55 56 55 57 59 61 62 61 59 58
44 46 48 50 48 45 41 37 35 34 33 31 29 28 29 29 29 27 22 21 25 26 22 21 22 20 19 20 21 21 20 21 22 25 26 26 27 27 29 29 31 33 34 36 39 40 41 41 38 38 41 45 48 50 54 57 59 61 63 64 67 70 71 70 69 66 63 64 65 63 64 64 62 61 59 58 58 55 55 55 54 55 57 59 62 62 63 63
44 46 48 50 48 44 41 37 35 34 33 31 29 29 30 30 29 27 24 22 23 26 22 20 22 20 19 21 21 22 23 24 26 28 29 30 31 32 33 33 34 36 36 37 39 42 43 38 35 37 40 43 48 50 53 56 59 61 63 65 67 68 69 70 68 66 65 66 65 63 63 63 61 61 59 58 57 55 54 53 53 54 55 56 57 57 58 60
44 46 48 50 48 43 40 37 35 34 33 31 29 30 30 29 28 26 25 23 24 25 22 21 23 21 21 21 20 22 24 25 26 28 30 32 32 34 34 35 37 38 38 39 40 43 43 39 39 42 42 43 47 51 53 55 58 60 62 64 65 64 66 68 66 65 67 67 66 63 62 63 61 61 60 58 57 56 54 53 53 53 53 54 56 55 56 57
44 46 48 49 47 43 40 37 35 34 33 32 30 30 29 28 27 25 24 24 24 25 22 22 24 22 21 20 21 23 25 26 27 28 30 32 33 34 34 35 36 36 37 39 40 43 42 41 44 46 45 45 47 50 53 55 57 59 61 63 63 61 62 64 62 62 65 68 67 64 65 65 62 61 60 58 58 57 55 54 54 52 50 52 55 55 56 57
44 46 48 49 46 43 40 37 35 34 33 32 30 30 29 28 27 26 24 24 24 24 24 23 23 22 21 20 22 25 26 26 27 28 30 32 33 34 34 33 33 33 34 36 39 42 42 42 46 48 47 48 49 51 52 54 57 59 60 60 61 60 59 60 59 60 65 68 66 64 66 67 64 62 60 58 57 56 55 54 54 51 49 49 50 53 56 57
44 46 48 48 46 42 39 37 35 35 33 31 30 31 30 29 28 25 25 25 25 25 25 23 22 22 22 21 24 28 29 28 27 27 29 30 32 31 31 30 29 29 31 35 39 38 37 40 44 46 46 48 51 53 53 54 57 60 58 57 60 60 58 57 56 59 64 66 64 64 65 66 66 63 59 58 56 54 54 54 53 52 50 48 49 51 53 52
43 46 47 47 45 42 39 36 34 34 33 32 31 32 31 30 28 25 25 26 26 27 25 22 22 23 22 24 27 30 31 30 27 26 28 29 29 27 26 25 25 27 31 36 36 31 30 32 37 42 44 48 51 51 52 54 57 59 56 55 59 59 58 55 52 56 59 58 60 63 65 66 67 64 60 58 56 55 54 53 53 52 51 50 50 50 48 47
43 46 47 47 46 43 39 34 33 34 34 33 32 32 32 30 27 25 26 27 28 27 23 22 24 24 25 27 28 31 32 28 27 27 26 26 25 22 21 21 24 28 30 32 29 25 24 25 30 37 42 46 49 49 50 52 55 56 53 54 57 58 57 54 51 52 50 53 61 64 64 68 69 66 63 60 58 56 52 49 50 51 51 51 49 47 46 47
43 45 47 47 46 43 39 34 33 34 34 33 32 32 32 31 28 25 25 27 28 25 21 22 24 25 28 28 28 32 31 27 27 25 22 24 24 21 21 22 25 26 25 26 26 24 24 25 28 33 37 40 44 46 48 49 51 52 52 53 54 56 57 54 53 51 46 54 65 64 63 69 72 69 63 60 58 54 49 47 48 49 50 50 48 47 47 47
43 45 46 47 46 43 39 34 33 34 34 32 31 31 33 32 28 25 26 27 26 23 21 22 24 27 30 31 30 31 30 28 25 21 20 23 25 24 23 22 22 23 23 23 23 23 25 26 27 28 31 34 37 41 44 46 47 50 51 51 52 55 55 53 55 52 50 61 68 64 62 67 72 70 63 60 57 52 49 47 46 46 45 45 46 48 49 48
43 45 46 47 46 43 38 34 33 33 33 32 30 32 34 32 27 25 27 28 27 24 22 22 24 27 29 31 32 33 31 27 22 19 20 21 21 20 19 18 18 21 22 21 20 23 25 25 25 27 29 31 35 39 41 44 46 48 49 49 51 54 54 55 56 54 58 67 66 60 59 64 71 69 62 60 57 53 50 46 45 43 39 40 44 47 48 48
42 45 46 46 46 42 38 34 33 33 32 31 30 33 34 31 28 27 29 30 28 25 24 24 24 26 29 30 33 33 30 26 23 21 19 16 14 13 13 14 16 19 20 20 22 24 25 26 28 31 32 33 35 38 40 43 46 48 48 48 53 56 56 56 55 56 64 68 60 55 56 64 71 67 62 60 56 52 49 47 46 41 36 38 42 43 45 46
41 44 45 46 45 42 37 33 32 32 32 29 30 33 33 31 29 28 29 29 27 25 25 26 25 25 28 30 31 31 28 27 25 21 16 12 10 10 11 12 13 16 18 21 22 24 26 28 29 31 34 35 35 37 38 40 44 45 44 47 54 57 58 57 56 59 66 62 54 52 57 66 70 65 60 57 54 52 49 48 46 38 35 38 39 39 42 45
41 43 45 45 45 42 37 32 31 32 31 29 30 33 33 31 28 28 29 28 28 28 26 27 27 27 27 28 29 30 28 26 23 17 12 9 7 9 9 10 12 13 15 17 17 19 20 21 24 29 34 37 38 38 37 39 43 42 40 47 55 57 57 56 54 58 60 54 51 53 58 66 67 61 56 52 50 50 48 47 45 38 36 39 39 39 41 44
40 43 45 44 44 43 38 32 30 31 31 29 31 33 34 31 28 28 28 28 30 31 29 27 27 28 27 26 29 29 23 20 20 17 14 12 9 7 5 4 6 6 7 7 8 9 8 10 17 23 29 36 39 39 38 40 42 41 42 49 53 54 55 55 55 57 55 50 50 52 56 61 60 54 51 49 46 46 46 46 43 39 39 41 40 38 40 42
39 42 44 44 44 43 37 31 30 31 31 30 31 33 33 30 28 28 28 29 30 30 29 28 27 28 25 24 27 23 16 16 17 15 16 17 13 9 7 5 4 4 3 1 2 3 3 8 14 17 20 27 33 36 39 40 40 42 46 48 51 56 58 60 58 51 49 50 50 50 51 53 51 48 49 48 46 44 45 44 41 39 40 41 39 37 37 39
38 41 43 43 43 42 36 30 29 31 32 31 31 32 31 29 27 27 27 28 30 29 28 27 28 28 24 23 22 14 11 14 14 13 16 17 13 8 6 5 4 5 6 5 2 0 2 6 10 11 12 19 27 34 38 41 42 43 46 48 54 61 63 64 54 42 44 51 48 46 46 48 48 47 46 45 45 44 42 39 38 40 41 40 37 36 36 37
37 40 42 43 42 41 36 30 28 30 32 31 31 31 29 27 26 28 28 29 30 30 27 25 27 29 24 22 18 10 8 12 12 12 17 18 14 11 10 9 8 7 6 6 3 1 2 3 5 6 9 14 24 32 37 43 47 47 49 53 58 62 64 61 49 42 48 51 43 41 44 47 48 45 42 42 43 42 40 37 36 37 38 37 35 36 35 35
35 39 41 42 41 40 37 31 26 28 31 31 31 30 28 26 26 28 28 28 29 30 28 25 25 28 26 22 18 9 6 9 11 11 15 16 16 15 16 15 13 12 11 9 4 2 3 3 1 4 11 14 21 30 36 43 51 54 57 59 60 63 63 57 49 48 51 44 36 38 42 46 46 42 41 41 40 39 37 36 36 34 33 32 32 34 33 32
35 37 39 40 40 39 38 32 26 26 29 30 30 30 29 27 26 26 26 26 28 30 32 30 27 26 26 23 18 11 5 5 9 10 11 14 16 17 18 18 17 17 15 13 11 11 12 9 4 7 15 15 15 24 32 42 52 56 58 60 61 62 60 54 50 49 46 35 31 36 38 41 42 38 39 40 37 35 33 33 34 34 31 30 29 29 28 27
34 37 39 39 40 40 38 32 26 24 26 28 30 31 30 27 25 25 25 26 28 29 33 35 31 26 26 23 18 12 5 2 5 9 10 13 15 16 17 18 19 18 17 19 17 15 13 7 4 8 15 15 15 23 33 46 54 57 59 60 60 61 58 54 49 44 40 31 27 34 34 31 35 35 33 36 35 31 29 30 31 31 31 30 28 26 25 24
34 37 38 39 40 40 38 33 27 24 25 27 28 30 30 27 24 25 26 28 30 29 29 32 30 27 25 23 18 12 5 1 3 6 9 11 13 14 15 18 19 17 19 22 16 11 11 5 5 5 11 17 20 28 41 52 56 58 61 61 60 61 59 55 48 41 39 32 23 29 33 25 27 32 28 30 32 29 28 29 29 28 29 29 27 25 23 21
34 36 38 39 40 40 39 36 29 23 23 25 25 26 28 26 24 24 26 28 29 27 26 28 29 28 26 22 18 13 4 1 3 6 7 10 12 14 14 17 18 16 20 22 15 12 16 8 4 8 14 22 28 40 51 55 55 58 61 59 60 61 58 54 47 38 38 34 21 22 30 21 19 28 30 28 29 28 28 29 28 27 26 26 26 24 21 18
34 36 37 38 39 39 39 39 33 25 22 24 25 25 24 22 22 24 25 25 26 26 27 29 28 28 26 21 18 14 6 2 4 6 7 9 11 12 13 16 18 17 19 21 16 16 16 6 10 16 24 31 37 50 56 52 52 57 58 57 59 59 56 52 45 37 37 35 23 21 26 21 15 24 31 29 28 28 29 28 28 27 25 25 24 23 21 18
34 36 37 37 38 38 39 39 36 30 24 24 26 25 23 21 21 23 24 23 24 26 28 30 28 27 25 20 17 16 9 1 6 5 5 7 9 10 12 15 16 17 19 19 18 15 10 8 17 27 34 37 42 51 52 47 50 55 56 57 57 55 54 52 43 35 36 35 28 26 27 24 20 23 26 26 27 29 29 29 29 28 27 25 23 21 21 19
34 35 36 37 37 38 38 38 37 32 26 24 25 25 25 24 21 20 21 22 23 25 27 28 28 27 25 19 17 16 11 3 3 4 3 6 7 8 10 13 15 18 19 19 16 10 4 10 21 34 37 35 41 48 47 44 48 54 57 57 55 53 56 54 42 36 37 34 31 32 31 28 26 27 27 26 27 29 30 29 28 28 27 26 23 20 20 21
33 34 34 36 37 37 37 37 36 31 25 23 24 24 25 26 23 20 21 22 22 23 26 27 26 26 24 19 16 15 11 6 2 2 3 4 6 7 9 12 15 17 19 18 15 6 4 10 20 31 32 31 36 40 43 46 49 55 59 56 54 58 59 51 41 38 38 36 35 36 35 31 29 29 28 27 27 27 27 27 26 26 26 25 22 21 22 24
33 33 34 35 36 37 36 36 36 33 26 23 23 23 23 24 24 23 22 22 22 22 24 26 25 24 23 18 16 15 12 7 2 1 2 3 5 7 9 14 17 18 19 18 13 6 7 10 15 23 27 30 32 32 40 50 54 58 59 53 54 62 57 44 41 42 39 38 39 39 37 32 29 28 28 28 27 26 25 26 26 25 24 22 22 23 24 25
32 32 33 34 35 37 36 36 36 35 28 23 22 22 23 22 22 24 23 22 23 21 21 23 23 23 23 19 15 13 11 7 2 2 4 4 6 9 11 15 17 18 20 17 10 6 8 11 11 16 25 31 32 31 36 49 57 57 54 52 57 61 49 38 43 44 38 38 40 40 38 33 28 27 28 28 28 27 27 27 26 23 20 19 20 23 24 24
32 31 32 33 34 36 36 35 36 35 29 24 21 20 21 21 21 23 24 23 23 21 19 21 22 23 23 19 15 11 6 4 2 4 5 6 9 11 13 15 16 17 18 16 10 6 11 13 10 14 23 28 32 32 33 44 54 51 48 54 59 54 42 39 44 44 40 41 42 41 40 35 28 26 28 28 29 30 30 28 26 22 20 17 17 21 24 24
32 31 32 33 34 35 36 34 34 35 30 25 21 19 21 23 21 21 21 21 21 20 18 20 22 23 22 18 14 11 5 2 2 4 5 7 10 11 12 14 16 16 16 15 10 9 15 16 11 14 20 23 30 33 32 40 47 44 45 53 54 47 39 37 41 43 41 41 43 42 40 36 32 29 30 31 32 32 31 30 27 24 23 20 19 21 25 26
Wind_Direction
346 346 346 345 344 342 339 336 332 327 322 317 314 310 306 301 296 291 286 284 282 280 276 272 267 261 255 251 249 247 246 245 244 243 242 241 240 239 238 237 236 235 234 233 233 233 234 234 233 232 231 232 232 231 230 231 232 233 234 234 233 232 231 230 230 230 231 227 223 219 212 214 208 191 187 190 194 204 242 251 245 240 237 248 249 242 248 256
345 345 345 345 344 342 340 337 333 328 323 319 315 311 308 305 302 298 294 290 287 285 282 278 274 269 262 256 252 249 247 245 244 243 242 241 241 240 239 237 237 236 235 234 232 233 233 233 233 233 232 232 232 231 231 231 232 233 234 235 233 232 231 231 231 231 232 229 225 222 214 214 214 201 192 195 204 212 226 239 249 240 228 239 243 239 245 255
344 345 345 345 344 342 340 337 333 329 324 319 315 312 310 307 306 304 301 297 294 290 287 284 280 275 269 262 256 253 250 248 246 244 242 241 240 240 239 238 237 237 236 234 233 232 232 233 233 233 232 232 232 231 231 231 232 233 234 235 234 233 233 232 232 231 231 230 226 223 218 213 215 215 205 199 208 208 208 213 227 235 225 226 233 235 243 251
343 344 345 346 345 343 340 337 333 329 324 319 316 312 310 308 306 305 303 301 299 295 291 288 284 280 276 270 263 257 253 251 249 246 244 242 240 239 239 239 238 237 236 235 234 233 232 232 232 232 232 232 231 230 231 231 233 233 234 234 234 234 234 233 232 231 231 230 228 224 221 216 214 221 212 201 207 202 202 207 209 225 228 230 242 242 239 242
343 344 345 346 345 343 340 337 333 328 324 319 315 312 309 307 305 304 304 302 299 296 293 289 285 281 278 274 270 263 257 253 251 248 246 244 242 240 239 238 238 237 237 236 235 233 233 232 232 232 232 231 231 230 230 230 232 234 235 235 235 235 236 235 233 232 231 231 229 224 221 218 215 219 214 204 205 198 199 216 218 232 237 231 238 245 243 242
343 344 345 346 346 343 340 336 332 328 323 318 315 311 309 307 306 306 305 303 299 296 292 289 285 282 279 275 272 268 263 257 252 250 248 246 244 242 240 238 238 238 237 237 236 234 233 233 232 232 232 231 231 231 230 229 230 232 234 235 234 235 236 236 235 233 232 230 229 225 219 219 217 218 216 213 208 193 192 215 221 232 241 228 226 240 245 241
343 344 346 347 346 344 340 336 331 327 322 318 315 313 310 309 309 309 308 306 303 300 298 293 288 284 280 276 272 268 265 261 256 251 250 248 246 243 241 239 238 237 237 236 236 235 234 233 232 232 232 231 231 231 230 229 230 231 233 234 234 235 236 235 235 234 233 231 229 225 222 219 218 218 218 220 214 193 188 203 209 212 226 232 233 243 244 239
344 345 347 348 347 344 341 336 331 326 322 319 316 315 314 315 315 314 312 310 308 307 305 301 296 287 280 276 271 267 264 262 259 255 251 249 249 246 243 240 239 238 237 236 236 235 234 233 233 232 231 231 231 230 230 230 230 231 232 232 234 234 235 235 234 234 233 232 229 227 225 219 216 217 217 220 219 209 200 200 206 210 219 232 243 250 245 238
344 346 348 348 347 345 341 336 330 325 321 318 316 316 317 318 318 316 315 313 312 311 308 306 301 292 283 275 271 268 264 261 261 260 254 250 249 249 246 242 240 238 237 236 236 235 234 234 233 232 232 231 230 230 230 229 229 230 230 230 231 232 233 233 233 233 232 232 231 229 226 218 214 213 212 214 218 219 215 205 205 209 215 225 237 246 243 237
344 346 348 348 347 345 341 336 330 324 320 317 317 317 318 319 318 317 315 315 314 313 310 307 302 296 286 278 273 269 265 262 261 261 258 253 249 249 248 245 242 240 238 237 236 235 234 233 233 233 233 232 231 230 230 229 228 229 229 229 230 231 231 232 232 231 231 231 231 230 226 220 216 214 211 209 209 214 216 212 211 211 211 215 223 232 235 237
344 346 348 348 347 345 341 336 330 324 320 318 319 319 320 319 318 317 316 316 316 315 312 309 305 299 289 283 275 267 267 267 264 261 260 256 252 249 248 247 245 243 241 239 236 235 235 233 233 232 232 232 231 230 230 230 229 229 230 230 230 231 231 231 231 230 231 231 229 230 229 224 221 219 214 210 205 206 212 215 215 216 216 217 222 228 229 234
345 346 348 348 347 345 341 336 330 324 321 320 321 320 320 319 318 318 317 316 315 313 311 309 307 302 296 288 273 268 270 269 266 265 263 261 258 254 250 248 246 244 242 241 239 236 235 234 233 231 231 231 231 231 230 229 229 229 230 231 231 231 231 231 232 231 230 230 229 230 232 228 223 218 213 210 206 201 207 216 218 217 218 220 226 228 224 230
345 346 347 347 347 345 341 336 331 325 322 322 322 322 320 319 319 318 317 315 311 308 306 306 305 302 298 289 276 273 272 269 267 265 264 263 261 260 256 250 246 244 242 240 240 238 236 235 233 232 231 230 230 230 230 230 229 228 229 231 231 231 231 231 232 232 231 231 229 230 233 229 222 216 211 208 206 201 202 212 221 221 217 217 224 226 221 226
344 346 347 347 346 344 341 337 332 327 324 323 323 323 320 319 320 318 316 312 307 304 304 304 303 300 295 285 279 279 276 271 267 262 261 261 259 258 258 255 250 246 243 241 240 238 237 236 234 233 231 230 229 229 229 230 230 229 229 230 230 231 231 230 231 232 232 232 230 230 233 229 222 217 212 207 206 203 201 206 219 225 220 217 220 225 226 227
344 346 347 347 346 344 341 338 333 328 325 324 324 323 321 319 319 318 315 309 305 304 304 304 303 299 292 285 281 280 277 273 268 262 258 256 255 253 254 255 253 250 246 243 242 240 238 236 234 233 232 230 228 228 227 228 229 229 230 230 229 230 230 229 230 231 231 232 231 231 233 230 225 219 214 212 210 205 201 200 210 222 224 225 223 225 230 232
344 345 347 347 346 344 341 338 333 329 327 326 324 323 321 319 319 317 313 308 306 306 306 306 304 300 294 288 283 279 274 270 267 262 257 252 250 248 249 250 251 249 247 244 243 241 240 237 234 232 232 231 229 227 227 227 228 229 229 229 229 230 229 228 228 230 231 231 231 232 234 232 229 223 217 218 217 211 205 202 208 220 223 227 228 227 230 235
344 345 347 347 345 343 341 339 334 330 328 327 324 323 321 320 319 317 314 311 310 310 311 311 308 303 300 294 287 281 275 270 265 261 255 251 248 246 247 247 248 248 246 245 244 243 242 239 236 233 231 230 229 228 226 225 227 228 229 229 229 229 229 227 226 228 230 231 231 232 234 233 232 228 223 222 221 217 213 210 214 220 219 223 229 230 232 235
344 345 347 347 345 343 341 339 335 332 330 327 324 323 322 322 322 320 317 314 315 318 319 318 315 311 307 301 295 289 282 275 267 260 255 251 249 246 246 246 247 247 246 245 244 243 243 240 238 235 231 229 229 229 227 226 226 228 230 230 229 229 229 227 225 225 228 229 230 231 233 233 233 232 229 226 224 222 219 216 215 216 216 220 225 228 231 234
344 345 347 347 345 343 341 339 336 333 330 327 323 322 323 324 324 323 320 318 321 326 326 325 322 317 313 309 304 297 289 281 270 261 254 250 249 247 247 246 245 245 245 245 243 242 242 241 239 236 232 230 230 230 229 227 226 226 227 229 229 229 229 228 226 224 226 228 229 230 232 233 233 233 232 229 226 225 224 220 216 215 216 218 222 226 230 233
344 345 346 346 345 343 341 340 337 334 332 327 323 323 324 325 326 327 324 321 326 332 329 328 327 319 316 315 309 302 294 287 277 264 254 247 246 246 246 247 247 246 246 245 244 243 242 241 240 237 234 233 232 231 230 227 226 225 225 227 228 228 228 228 227 225 225 227 228 228 231 233 234 233 232 232 229 226 225 224 220 218 218 218 221 225 228 233
344 345 346 346 345 343 342 340 337 335 333 328 324 324 325 327 328 329 329 325 328 334 330 326 327 319 315 313 307 304 297 289 283 275 265 254 249 248 247 247 247 248 247 246 246 245 244 243 242 239 236 235 233 231 229 227 226 224 223 225 226 226 226 227 227 224 224 227 228 228 230 232 232 232 232 234 234 229 225 225 223 222 223 222 224 227 231 234
344 345 346 346 345 343 343 341 337 336 335 331 326 325 327 330 329 328 330 326 327 332 328 324 325 318 314 311 305 303 296 289 284 278 272 265 258 255 251 248 246 246 247 247 248 248 247 246 244 242 238 235 233 231 229 228 226 225 223 223 223 224 225 225 226 225 223 225 227 228 230 231 231 231 231 231 233 231 228 227 224 224 226 227 227 229 233 236
345 346 346 346 346 344 343 341 338 337 336 333 330 329 330 331 330 328 328 327 327 329 323 321 323 315 312 312 306 300 295 290 286 281 277 273 267 262 257 253 250 249 249 250 250 250 248 246 244 244 241 236 232 231 230 229 227 225 223 222 222 222 223 224 225 225 224 224 226 227 230 231 230 230 230 229 231 232 232 231 227 224 225 228 230 231 234 237
345 346 346 346 346 345 343 342 339 338 338 336 333 332 332 332 330 327 327 326 326 328 321 316 320 314 311 313 308 304 301 295 290 285 281 277 272 268 264 260 257 254 253 253 253 252 248 245 244 244 243 238 232 229 230 229 227 225 224 223 221 220 222 222 222 223 225 225 225 226 229 231 230 229 228 227 228 229 231 232 230 227 223 225 229 231 235 238
345 346 346 346 347 346 344 342 340 340 340 337 335 333 333 333 332 330 328 326 325 327 320 313 316 315 312 313 313 314 309 299 290 283 281 279 275 273 268 263 261 259 256 254 253 251 247 245 245 246 243 237 230 227 228 228 227 225 223 223 221 219 220 221 219 220 223 225 225 225 228 230 229 228 228 226 226 227 227 228 230 228 224 223 226 229 232 236
345 346 347 347 347 347 345 342 341 342 341 338 335 334 336 336 336 334 330 327 327 327 322 316 316 315 312 312 316 318 311 300 291 283 282 281 279 276 272 267 264 260 258 255 252 250 248 246 246 245 240 233 226 223 224 226 226 223 222 222 221 218 218 219 218 219 221 224 224 224 227 229 229 228 228 227 226 225 225 226 228 229 226 225 226 228 229 231
345 346 347 348 348 348 346 343 343 342 341 340 338 339 341 339 338 336 331 330 331 330 326 320 317 316 312 309 314 317 312 305 298 289 285 282 279 276 273 269 263 258 257 256 254 254 253 248 242 238 232 226 223 219 219 222 223 221 219 220 220 218 217 217 217 219 221 223 222 222 224 229 230 228 228 228 228 226 224 223 224 227 227 226 227 229 231 231
346 346 348 349 349 349 347 344 343 341 341 342 342 343 343 339 337 336 334 335 335 333 329 323 321 320 314 312 314 317 315 310 303 297 289 282 278 275 270 266 262 259 257 258 257 256 253 245 236 232 228 222 220 218 217 220 222 218 216 218 218 217 215 213 214 218 220 221 221 221 224 227 229 227 227 229 229 227 224 221 222 224 226 227 229 231 233 233
346 347 348 349 350 350 349 345 342 343 344 345 346 345 341 338 338 338 338 339 338 336 332 327 327 325 320 318 316 316 317 310 302 301 295 285 278 271 266 265 264 261 258 256 254 249 248 242 230 228 227 222 218 216 216 219 221 219 215 216 215 214 213 209 209 213 214 217 220 220 223 226 228 226 226 227 227 225 223 221 221 223 225 227 229 231 233 234
346 347 349 350 351 351 349 346 344 346 347 348 348 344 339 339 341 341 342 343 342 339 336 332 331 330 325 321 317 316 318 311 303 303 298 287 283 276 270 269 264 258 251 245 241 240 241 236 227 225 225 222 219 216 215 216 218 218 216 214 212 212 210 206 206 205 205 215 220 219 221 227 229 227 223 223 225 225 224 222 221 222 224 226 228 230 233 236
347 348 350 351 352 351 349 347 347 349 349 349 347 341 340 343 345 344 345 347 347 344 341 336 334 332 326 322 319 319 320 315 306 302 299 288 283 280 276 270 259 248 241 238 236 238 238 234 231 230 226 222 219 216 214 214 215 216 215 211 209 208 205 203 201 197 202 216 220 218 221 227 230 228 223 223 225 228 227 225 223 222 222 224 228 229 231 235
348 349 351 352 352 352 349 348 349 349 350 350 345 341 344 348 348 347 349 351 352 350 344 338 336 332 327 323 322 323 326 322 310 306 306 293 282 279 273 266 254 240 236 238 238 240 241 237 233 229 226 222 217 213 211 211 212 213 212 208 206 203 199 199 198 196 208 218 218 217 220 226 229 228 227 227 225 226 227 227 226 225 222 224 228 229 230 233
349 349 352 353 353 352 350 349 350 350 351 350 345 344 348 350 350 352 354 354 355 351 343 339 338 336 331 327 326 329 331 326 316 315 315 298 281 276 267 261 249 236 236 240 242 244 243 239 233 228 224 220 217 213 210 211 211 209 208 206 203 199 195 197 198 202 213 218 215 214 218 224 228 228 229 230 228 226 226 228 228 225 221 223 227 229 230 231
349 350 353 354 353 353 352 350 349 350 352 350 345 347 351 353 354 358 359 358 356 351 343 337 337 339 335 331 333 335 333 329 324 323 321 303 285 280 274 263 246 236 240 244 247 249 245 239 234 231 226 221 218 215 211 213 214 208 205 205 202 197 194 196 199 207 215 215 211 211 216 222 226 227 227 228 230 229 226 227 229 224 218 222 226 227 229 230
350 351 354 355 354 354 353 350 349 350 352 350 348 350 353 355 359 3 3 1 357 353 348 338 334 341 340 335 340 343 341 341 344 348 345 329 312 296 281 260 247 244 247 252 255 255 250 240 231 229 227 222 219 215 210 213 214 206 201 203 200 194 193 196 200 207 212 211 206 208 216 222 224 225 227 227 229 229 227 227 228 223 218 223 225 224 226 229
350 352 354 355 355 354 354 351 348 350 352 350 351 354 354 357 3 6 6 4 0 358 355 347 341 343 342 340 347 352 359 6 9 18 24 20 16 357 331 287 252 249 252 253 249 249 244 217 214 220 220 219 219 216 212 211 208 201 199 201 197 190 191 194 197 202 207 206 205 207 215 222 223 224 226 227 227 228 228 227 227 223 222 226 225 222 223 226
350 353 354 356 356 355 354 351 347 350 352 353 355 356 355 359 4 7 8 6 3 1 358 355 353 350 343 344 355 6 24 28 22 28 29 25 28 33 40 66 116 108 84 104 193 232 198 185 206 213 209 212 213 211 210 207 201 196 196 194 188 186 188 189 192 199 205 205 205 207 213 220 222 222 224 224 224 226 227 228 227 224 225 227 225 221 222 223
349 353 355 357 357 355 354 352 348 349 352 355 358 358 357 1 5 8 9 7 5 1 357 356 359 359 350 347 1 27 51 32 21 19 13 13 20 33 44 55 74 71 51 35 39 72 168 188 209 207 197 204 207 206 204 199 192 190 189 185 182 183 185 187 189 194 200 202 204 206 211 218 219 218 220 223 222 223 226 227 226 226 228 229 226 223 221 219
349 353 355 357 357 355 354 354 349 348 353 356 358 359 360 3 8 10 9 6 4 360 356 358 2 4 359 354 4 36 58 29 13 3 1 5 10 15 18 22 33 44 32 22 38 116 131 161 186 198 202 206 207 205 198 190 183 179 180 181 180 182 184 186 187 188 193 200 204 204 210 218 219 217 219 222 223 222 223 224 223 225 228 229 228 227 222 217
348 353 356 357 356 355 355 356 352 350 354 357 357 359 2 5 11 14 9 4 4 1 358 1 6 7 6 3 6 20 47 33 13 2 2 1 2 8 15 22 31 34 30 28 32 21 7 5 65 178 204 214 210 201 191 183 176 172 175 178 178 180 183 183 183 186 189 194 199 203 211 216 217 217 218 221 224 223 222 222 221 222 225 225 225 227 222 217
347 353 356 355 355 356 356 356 355 354 355 356 356 359 5 8 12 17 14 10 11 8 1 358 2 9 11 10 11 14 32 36 10 2 4 0 2 11 16 21 24 23 23 27 24 15 11 7 32 172 200 213 201 188 183 177 171 169 173 175 176 180 181 180 180 183 185 184 189 200 212 218 215 214 217 218 220 222 220 221 221 220 222 222 222 224 219 213
346 352 354 354 355 357 357 356 356 357 357 356 356 359 6 12 15 18 19 16 13 10 4 0 358 3 9 10 11 14 24 34 358 354 1 3 1 4 9 13 22 27 28 31 34 28 27 45 122 181 203 201 180 180 180 172 168 169 172 173 176 180 179 176 175 177 181 178 181 197 208 217 213 210 214 215 214 214 216 220 221 221 222 222 222 220 214 206
346 350 352 353 356 358 357 356 357 359 359 359 360 360 4 13 18 19 17 13 10 6 6 6 1 357 2 7 9 15 24 360 328 335 353 3 356 357 3 4 15 35 36 34 44 43 33 61 138 160 193 193 184 181 176 168 167 171 172 174 177 179 176 174 172 175 179 172 170 194 201 205 206 204 208 212 209 206 210 217 221 220 221 220 218 216 210 204
346 348 350 353 357 357 357 358 359 358 358 1 4 3 2 7 11 14 14 12 10 6 4 5 4 1 1 4 9 17 29 241 289 306 333 355 352 353 2 0 4 21 27 30 39 29 18 25 133 140 171 185 180 174 169 167 169 172 173 175 176 176 175 173 173 178 179 171 162 185 193 190 198 204 206 208 207 206 210 216 217 217 217 215 214 211 203 198
346 347 349 353 356 357 357 359 359 356 355 360 6 5 2 1 0 5 12 14 13 11 5 1 4 8 7 4 9 18 30 213 251 288 326 355 357 354 358 359 358 359 6 22 31 21 20 57 148 153 167 173 167 166 167 167 169 172 175 176 174 174 174 174 178 178 173 173 171 171 179 180 188 203 208 210 209 209 213 217 216 214 213 213 212 205 195 189
345 346 348 352 356 357 357 358 358 356 354 357 4 4 360 360 0 2 9 13 14 13 8 1 5 14 14 8 9 18 28 211 234 265 329 2 2 356 354 357 3 3 3 15 22 17 33 113 151 158 164 167 165 166 167 167 169 174 176 174 172 173 174 176 179 173 167 175 175 163 166 173 176 184 193 199 201 201 205 212 214 212 212 213 210 199 190 190
343 345 348 351 355 357 358 358 358 357 352 354 2 1 357 0 6 7 9 11 12 11 9 7 8 14 18 16 13 19 34 62 222 252 318 3 5 357 353 354 4 9 9 16 22 21 62 126 152 162 165 166 168 170 171 170 171 173 172 171 171 173 176 178 177 169 168 173 169 163 167 171 173 176 182 188 192 193 198 207 212 213 216 218 212 200 192 194
343 344 347 350 354 357 358 358 358 357 351 351 358 358 358 360 2 7 10 9 9 9 9 12 13 14 20 23 19 24 47 80 153 254 304 355 10 359 347 349 358 3 8 18 31 46 127 132 152 168 172 170 172 174 173 172 172 171 169 170 173 174 177 180 176 170 170 168 163 165 170 170 172 180 189 194 195 194 197 204 211 214 218 219 213 206 201 198
345 345 347 350 353 356 359 358 358 357 352 350 353 355 360 1 357 0 5 2 3 8 10 13 14 15 21 28 25 31 56 88 140 293 354 8 11 1 341 342 354 4 10 19 36 78 142 142 151 170 177 178 180 178 174 173 173 171 169 169 172 175 178 178 172 171 171 167 164 167 171 171 172 181 192 199 198 198 199 203 207 211 215 215 209 208 206 199
347 347 348 352 353 355 359 359 358 357 353 349 349 351 359 2 356 359 2 356 356 6 11 11 11 13 19 27 30 33 50 70 74 338 10 356 339 344 340 338 346 358 9 19 40 91 150 159 152 163 175 181 185 183 176 176 176 175 172 169 171 176 177 173 171 173 172 169 167 168 170 172 172 178 189 195 195 198 202 205 207 209 209 208 207 208 205 198
346 347 348 352 353 353 357 360 358 356 354 348 345 347 355 0 1 3 1 354 352 359 7 9 8 8 12 20 31 36 40 47 1 321 337 329 323 334 340 340 342 348 2 16 38 95 156 165 151 159 175 184 190 190 181 177 178 177 171 167 171 175 174 171 172 174 172 169 168 168 171 174 176 181 187 191 193 199 205 210 213 213 210 209 213 213 204 197
346 348 348 349 351 351 354 359 359 356 354 348 342 345 351 355 3 8 0 352 350 354 3 6 4 6 8 11 23 32 32 21 326 311 317 319 326 339 343 340 340 347 1 17 40 103 150 162 159 169 180 185 191 192 181 171 173 172 164 163 168 173 175 173 172 173 174 172 170 172 176 179 181 184 188 194 201 205 211 217 220 219 217 216 220 217 204 198
Height
5772 5768 5764 5760 5756 5752 5748 5744 5739 5735 5732 5729 5727 5725 5723 5722 5721 5720 5719 5718 5717 5716 5715 5715 5715 5716 5716 5717 5718 5719 5721 5722 5724 5726 5729 5731 5734 5736 5738 5741 5743 5745 5749 5752 5755 5758 5760 5763 5766 5769 5773 5776 5779 5784 5787 5789 5791 5792 5794 5795 5795 5799 5804 5810 5815 5819 5824 5830 5835 5839 5843 5843 5844 5846 5847 5849 5851 5853 5854 5854 5853 5855 5858 5861 5862 5863 5863 5864
5769 5765 5761 5757 5753 5749 5744 5740 5736 5732 5728 5726 5723 5721 5719 5718 5717 5716 5715 5714 5713 5712 5711 5710 5710 5711 5711 5712 5712 5713 5714 5716 5717 5719 5722 5724 5727 5729 5732 5734 5737 5739 5742 5746 5749 5752 5754 5756 5759 5762 5766 5770 5774 5778 5781 5783 5785 5786 5789 5789 5790 5796 5803 5809 5813 5817 5821 5826 5832 5836 5839 5841 5842 5843 5844 5846 5848 5849 5850 5851 5851 5852 5855 5858 5860 5860 5861 5861
5766 5762 5759 5754 5750 5746 5741 5737 5732 5728 5725 5722 5720 5718 5716 5715 5713 5712 5711 5710 5709 5708 5707 5706 5705 5706 5707 5707 5707 5708 5709 5710 5711 5713 5715 5717 5719 5722 5725 5728 5730 5733 5736 5739 5742 5745 5747 5749 5752 5756 5759 5763 5768 5772 5775 5778 5779 5781 5784 5782 5786 5795 5801 5805 5809 5812 5817 5822 5827 5831 5835 5837 5839 5841 5841 5842 5844 5845 5845 5847 5849 5850 5852 5854 5856 5858 5859 5860
5763 5760 5756 5752 5747 5743 5738 5734 5729 5725 5722 5719 5716 5715 5713 5711 5710 5709 5708 5707 5706 5704 5703 5702 5701 5700 5701 5702 5703 5703 5703 5704 5705 5706 5708 5709 5711 5714 5718 5721 5723 5726 5729 5732 5735 5738 5741 5743 5746 5749 5752 5757 5761 5764 5768 5772 5774 5776 5777 5778 5786 5793 5796 5799 5803 5808 5813 5817 5822 5826 5830 5833 5836 5839 5839 5839 5840 5841 5841 5842 5845 5847 5849 5852 5854 5856 5857 5857
5760 5757 5753 5748 5744 5740 5735 5731 5726 5722 5719 5716 5714 5712 5710 5709 5707 5706 5705 5704 5702 5701 5699 5698 5696 5696 5695 5696 5697 5697 5698 5698 5699 5700 5701 5703 5705 5707 5711 5713 5716 5719 5722 5725 5728 5731 5734 5736 5739 5742 5746 5750 5753 5757 5762 5767 5769 5770 5772 5777 5785 5788 5789 5794 5799 5804 5808 5812 5816 5820 5825 5830 5833 5835 5836 5835 5836 5839 5840 5840 5842 5845 5848 5850 5852 5853 5854 5855
5757 5754 5750 5745 5741 5736 5732 5728 5723 5719 5716 5713 5711 5709 5707 5705 5704 5703 5701 5700 5698 5696 5695 5694 5692 5691 5690 5690 5691 5691 5692 5693 5694 5694 5695 5697 5699 5701 5703 5706 5709 5712 5715 5718 5721 5724 5728 5730 5733 5736 5739 5743 5747 5751 5756 5760 5763 5764 5769 5775 5779 5781 5783 5789 5794 5798 5803 5806 5810 5815 5821 5826 5828 5830 5833 5834 5833 5837 5839 5837 5838 5841 5845 5847 5849 5851 5852 5852
5754 5751 5746 5742 5738 5733 5729 5724 5720 5716 5712 5710 5707 5705 5703 5702 5700 5699 5697 5695 5693 5691 5690 5689 5688 5687 5685 5685 5686 5686 5686 5686 5688 5689 5690 5691 5692 5694 5696 5699 5701 5704 5708 5710 5714 5717 5721 5724 5726 5728 5732 5736 5740 5745 5750 5754 5757 5760 5764 5769 5773 5776 5778 5783 5788 5792 5797 5801 5805 5811 5816 5819 5822 5826 5830 5831 5833 5835 5834 5833 5834 5836 5841 5844 5846 5848 5849 5850
5752 5748 5743 5739 5734 5730 5725 5721 5717 5712 5709 5706 5703 5701 5699 5697 5695 5693 5691 5689 5687 5686 5685 5684 5683 5682 5681 5681 5681 5681 5680 5681 5682 5684 5686 5686 5686 5687 5689 5692 5695 5697 5700 5703 5706 5710 5713 5716 5718 5721 5724 5729 5733 5739 5743 5747 5751 5754 5759 5764 5766 5768 5771 5776 5781 5786 5790 5795 5801 5805 5808 5812 5818 5822 5825 5826 5831 5832 5830 5830 5832 5833 5835 5839 5843 5844 5846 5847
5749 5745 5740 5736 5731 5727 5722 5718 5713 5710 5706 5702 5700 5697 5695 5693 5690 5688 5686 5685 5683 5682 5680 5680 5679 5678 5678 5677 5677 5676 5675 5676 5678 5679 5680 5681 5681 5681 5683 5686 5688 5691 5693 5696 5699 5702 5705 5708 5710 5714 5719 5724 5728 5732 5736 5740 5745 5749 5753 5756 5757 5757 5762 5768 5774 5779 5785 5790 5795 5798 5802 5808 5814 5817 5818 5821 5827 5830 5828 5828 5829 5830 5832 5835 5839 5841 5842 5844
5746 5742 5737 5733 5728 5724 5719 5715 5711 5707 5703 5700 5697 5695 5692 5690 5688 5685 5683 5681 5679 5678 5676 5675 5674 5674 5674 5674 5674 5671 5669 5672 5675 5674 5675 5676 5677 5676 5676 5679 5682 5684 5686 5689 5692 5694 5698 5700 5704 5709 5715 5718 5722 5726 5730 5733 5739 5742 5744 5746 5747 5749 5756 5762 5768 5774 5779 5784 5788 5793 5797 5803 5809 5810 5810 5817 5824 5827 5826 5825 5827 5828 5829 5832 5835 5838 5840 5842
5743 5739 5735 5730 5725 5721 5716 5712 5708 5704 5700 5697 5694 5692 5690 5687 5685 5683 5680 5678 5676 5674 5673 5671 5671 5671 5670 5671 5669 5666 5665 5669 5671 5670 5670 5671 5672 5671 5672 5674 5676 5678 5680 5683 5685 5687 5690 5693 5697 5703 5707 5710 5715 5721 5725 5728 5733 5735 5737 5739 5742 5746 5753 5757 5762 5769 5773 5777 5783 5788 5792 5796 5800 5802 5806 5815 5820 5823 5822 5821 5824 5826 5828 5829 5832 5834 5836 5839
5741 5736 5732 5727 5722 5718 5713 5709 5705 5701 5697 5694 5692 5689 5687 5684 5682 5680 5677 5676 5673 5671 5669 5668 5668 5667 5667 5667 5662 5660 5662 5664 5666 5667 5667 5667 5667 5667 5668 5669 5671 5673 5674 5676 5678 5681 5683 5686 5691 5695 5698 5703 5710 5715 5718 5721 5725 5729 5732 5734 5738 5743 5747 5753 5759 5764 5768 5772 5779 5784 5784 5785 5791 5796 5805 5813 5817 5819 5819 5818 5820 5822 5825 5827 5830 5832 5833 5836
5738 5733 5729 5724 5719 5715 5710 5706 5702 5698 5695 5691 5689 5686 5684 5681 5679 5677 5675 5673 5670 5668 5666 5665 5665 5663 5663 5661 5656 5655 5658 5659 5661 5662 5662 5662 5663 5663 5663 5664 5665 5667 5669 5670 5672 5674 5677 5680 5684 5688 5692 5697 5703 5707 5711 5715 5718 5724 5726 5727 5732 5737 5742 5749 5755 5759 5763 5767 5775 5778 5773 5776 5786 5794 5802 5810 5813 5815 5815 5816 5817 5818 5821 5824 5826 5828 5829 5831
5735 5731 5726 5721 5716 5711 5707 5702 5699 5695 5692 5689 5686 5683 5681 5679 5677 5674 5672 5670 5667 5665 5663 5662 5661 5659 5659 5655 5651 5651 5652 5653 5655 5657 5657 5657 5658 5659 5659 5659 5660 5662 5663 5665 5666 5668 5671 5674 5677 5681 5685 5690 5695 5699 5705 5709 5712 5718 5719 5721 5728 5731 5736 5745 5750 5753 5759 5763 5769 5771 5767 5771 5783 5791 5799 5806 5807 5809 5812 5814 5815 5815 5817 5820 5822 5824 5826 5827
5732 5728 5723 5718 5713 5709 5704 5699 5696 5692 5689 5686 5683 5680 5678 5676 5674 5671 5669 5666 5663 5661 5659 5658 5656 5654 5653 5650 5647 5647 5646 5646 5648 5650 5652 5652 5653 5654 5654 5655 5656 5657 5659 5660 5661 5663 5665 5668 5671 5675 5678 5682 5688 5692 5696 5701 5705 5710 5712 5717 5722 5725 5731 5739 5744 5748 5754 5758 5763 5765 5763 5769 5779 5787 5795 5799 5800 5805 5809 5812 5814 5813 5813 5815 5818 5821 5822 5824
5729 5725 5720 5715 5710 5706 5701 5696 5693 5689 5686 5683 5680 5678 5675 5673 5671 5668 5666 5662 5659 5657 5654 5653 5651 5648 5647 5645 5642 5642 5641 5641 5642 5644 5646 5646 5647 5648 5649 5650 5651 5653 5654 5656 5657 5658 5660 5662 5665 5668 5671 5675 5680 5684 5689 5693 5697 5702 5706 5712 5716 5719 5724 5732 5738 5744 5748 5752 5757 5759 5761 5767 5774 5781 5787 5790 5794 5801 5805 5808 5811 5810 5811 5812 5815 5818 5819 5820
5727 5722 5717 5712 5708 5703 5698 5694 5690 5687 5684 5681 5678 5675 5672 5670 5668 5665 5662 5658 5655 5652 5649 5648 5645 5643 5641 5639 5637 5636 5635 5636 5637 5638 5640 5641 5642 5643 5644 5645 5646 5648 5650 5651 5652 5654 5655 5657 5659 5662 5665 5668 5672 5676 5680 5685 5691 5698 5702 5706 5708 5711 5716 5725 5733 5738 5742 5747 5752 5755 5757 5762 5768 5773 5779 5783 5789 5795 5799 5804 5808 5808 5809 5811 5812 5814 5815 5817
5724 5720 5715 5710 5705 5700 5695 5691 5687 5684 5681 5679 5675 5672 5669 5667 5665 5662 5658 5654 5651 5648 5645 5643 5640 5638 5637 5635 5633 5632 5631 5631 5632 5633 5634 5636 5637 5638 5639 5640 5641 5642 5644 5646 5647 5648 5649 5651 5653 5656 5659 5662 5666 5669 5674 5682 5690 5695 5696 5696 5699 5704 5711 5719 5727 5733 5738 5742 5747 5750 5750 5755 5761 5766 5772 5779 5785 5789 5794 5800 5804 5805 5807 5809 5810 5811 5812 5813
5722 5717 5712 5707 5702 5697 5693 5689 5685 5681 5679 5676 5673 5670 5667 5664 5662 5659 5654 5650 5648 5645 5641 5639 5637 5635 5633 5632 5630 5629 5629 5628 5629 5629 5630 5631 5632 5633 5634 5635 5636 5637 5638 5640 5641 5641 5642 5644 5646 5649 5654 5659 5663 5666 5672 5681 5685 5685 5685 5686 5693 5702 5708 5714 5721 5728 5733 5736 5740 5743 5745 5749 5755 5761 5767 5774 5780 5784 5789 5794 5799 5801 5803 5806 5807 5808 5809 5810
5719 5714 5709 5705 5700 5695 5690 5686 5682 5679 5676 5673 5670 5667 5664 5661 5659 5656 5651 5646 5645 5642 5638 5636 5635 5632 5630 5629 5628 5627 5627 5626 5626 5627 5627 5628 5629 5629 5630 5631 5632 5632 5633 5634 5634 5634 5636 5637 5640 5646 5652 5657 5660 5662 5666 5670 5671 5673 5677 5681 5689 5697 5702 5709 5716 5724 5730 5730 5732 5737 5741 5744 5750 5756 5762 5768 5773 5778 5783 5787 5792 5796 5799 5802 5804 5805 5806 5808
5717 5712 5707 5702 5697 5692 5687 5683 5680 5676 5674 5670 5667 5664 5661 5659 5655 5653 5649 5644 5641 5640 5637 5634 5633 5630 5628 5626 5625 5625 5625 5624 5624 5623 5624 5625 5625 5626 5627 5627 5628 5628 5628 5628 5627 5629 5630 5632 5638 5645 5650 5652 5652 5654 5656 5658 5660 5666 5671 5675 5681 5688 5696 5703 5710 5718 5725 5725 5727 5733 5735 5738 5744 5751 5757 5762 5766 5771 5777 5781 5786 5791 5793 5797 5799 5801 5804 5806
5714 5709 5705 5700 5695 5690 5685 5681 5677 5674 5671 5668 5665 5661 5658 5656 5652 5650 5648 5644 5639 5637 5635 5632 5631 5629 5627 5625 5623 5623 5622 5621 5621 5620 5620 5620 5621 5622 5622 5622 5623 5623 5623 5623 5623 5624 5625 5629 5637 5642 5643 5643 5644 5646 5648 5650 5653 5659 5664 5668 5674 5682 5691 5697 5703 5712 5719 5719 5721 5727 5729 5732 5740 5745 5751 5756 5760 5765 5771 5775 5781 5786 5788 5791 5794 5798 5800 5802
5712 5707 5702 5697 5692 5687 5682 5679 5674 5671 5668 5665 5662 5658 5655 5652 5649 5646 5644 5642 5638 5635 5633 5630 5629 5627 5625 5624 5622 5621 5620 5619 5617 5615 5615 5615 5616 5616 5615 5616 5617 5617 5617 5617 5618 5617 5619 5627 5633 5633 5632 5633 5636 5639 5641 5643 5647 5653 5658 5662 5669 5678 5684 5691 5699 5706 5711 5713 5716 5721 5723 5726 5733 5738 5744 5751 5755 5760 5765 5769 5775 5780 5784 5787 5790 5794 5795 5796
5709 5705 5700 5695 5690 5685 5680 5676 5672 5669 5666 5662 5659 5656 5652 5649 5647 5643 5641 5638 5635 5633 5630 5628 5626 5624 5623 5622 5620 5619 5617 5616 5613 5611 5609 5609 5609 5609 5609 5610 5609 5611 5612 5611 5611 5611 5615 5623 5624 5622 5624 5627 5630 5633 5635 5637 5642 5647 5653 5658 5666 5674 5679 5685 5694 5699 5704 5707 5710 5716 5718 5719 5726 5732 5738 5745 5749 5754 5758 5763 5768 5772 5779 5783 5785 5788 5790 5791
5707 5703 5698 5693 5688 5683 5678 5674 5670 5666 5663 5660 5656 5653 5650 5648 5645 5641 5638 5636 5633 5630 5627 5625 5623 5621 5619 5618 5616 5615 5613 5612 5610 5607 5605 5603 5602 5602 5603 5602 5603 5604 5604 5604 5604 5604 5610 5616 5614 5614 5617 5619 5622 5626 5628 5631 5636 5641 5647 5654 5662 5670 5674 5680 5688 5693 5696 5700 5706 5713 5712 5713 5721 5726 5731 5738 5743 5747 5753 5757 5761 5766 5773 5777 5779 5782 5784 5787
5705 5701 5696 5691 5685 5680 5676 5671 5667 5664 5661 5657 5654 5651 5648 5645 5642 5639 5636 5633 5630 5627 5624 5622 5619 5618 5616 5615 5613 5612 5609 5607 5605 5603 5600 5598 5596 5596 5596 5596 5597 5598 5597 5596 5595 5597 5603 5607 5605 5605 5609 5611 5614 5618 5622 5626 5629 5635 5643 5650 5656 5663 5669 5675 5683 5686 5688 5693 5701 5705 5705 5708 5714 5719 5725 5732 5737 5742 5748 5752 5756 5762 5767 5770 5774 5777 5779 5781
5703 5698 5694 5689 5683 5678 5673 5669 5665 5662 5659 5656 5652 5648 5645 5642 5639 5636 5633 5630 5628 5624 5621 5619 5617 5615 5613 5612 5610 5607 5604 5601 5600 5597 5595 5592 5590 5590 5589 5590 5591 5591 5591 5588 5588 5592 5597 5596 5594 5596 5600 5602 5604 5609 5615 5619 5621 5629 5640 5645 5650 5658 5665 5672 5678 5679 5683 5689 5693 5696 5700 5703 5707 5713 5721 5727 5731 5737 5742 5746 5752 5757 5761 5765 5768 5770 5773 5777
5701 5696 5692 5687 5682 5676 5671 5667 5663 5660 5656 5653 5649 5645 5642 5639 5637 5634 5631 5628 5625 5621 5619 5616 5614 5612 5610 5608 5606 5602 5598 5595 5593 5592 5589 5586 5584 5584 5584 5584 5585 5585 5584 5581 5583 5588 5588 5587 5588 5590 5592 5594 5598 5605 5611 5614 5616 5626 5636 5640 5645 5653 5659 5667 5672 5674 5679 5683 5684 5691 5698 5699 5700 5708 5717 5722 5726 5730 5735 5742 5748 5752 5757 5760 5763 5766 5770 5773
5699 5695 5690 5685 5680 5675 5670 5666 5662 5658 5654 5650 5646 5643 5640 5638 5635 5632 5628 5625 5622 5618 5615 5613 5611 5609 5607 5604 5601 5597 5594 5590 5587 5586 5583 5580 5579 5579 5579 5580 5579 5579 5578 5577 5580 5583 5583 5583 5585 5585 5587 5590 5595 5602 5607 5610 5615 5623 5630 5634 5639 5646 5653 5661 5666 5670 5674 5674 5678 5689 5694 5694 5695 5701 5710 5715 5718 5723 5731 5739 5745 5749 5753 5756 5759 5763 5766 5768
5697 5693 5688 5683 5678 5673 5668 5664 5660 5656 5652 5648 5645 5642 5640 5636 5633 5630 5626 5623 5619 5615 5613 5610 5608 5606 5603 5601 5598 5593 5589 5586 5583 5581 5579 5576 5574 5574 5574 5575 5574 5573 5573 5573 5576 5579 5579 5580 5580 5581 5584 5588 5594 5599 5603 5607 5612 5618 5623 5628 5634 5641 5649 5656 5659 5665 5667 5665 5672 5685 5690 5690 5689 5694 5704 5709 5712 5720 5729 5735 5740 5745 5749 5752 5756 5759 5761 5763
5695 5690 5686 5681 5676 5671 5666 5662 5658 5655 5651 5647 5644 5642 5639 5635 5631 5628 5625 5621 5617 5613 5611 5609 5606 5603 5600 5597 5594 5590 5586 5582 5578 5576 5575 5573 5571 5570 5569 5569 5569 5569 5569 5570 5573 5575 5575 5576 5578 5580 5583 5587 5591 5594 5599 5603 5608 5612 5617 5623 5629 5635 5644 5649 5653 5657 5657 5658 5670 5683 5688 5687 5683 5690 5702 5706 5711 5719 5725 5731 5736 5741 5745 5750 5753 5754 5757 5760
5694 5689 5684 5679 5674 5670 5665 5661 5657 5654 5650 5646 5643 5641 5637 5632 5629 5626 5623 5619 5615 5611 5609 5607 5604 5601 5598 5594 5590 5586 5582 5578 5574 5572 5570 5568 5567 5566 5565 5565 5565 5566 5567 5569 5571 5571 5572 5574 5576 5578 5580 5583 5586 5589 5594 5598 5601 5606 5612 5618 5623 5629 5637 5643 5647 5652 5653 5658 5671 5682 5686 5682 5679 5688 5699 5703 5709 5716 5721 5727 5732 5737 5743 5747 5749 5750 5754 5757
5692 5687 5682 5677 5672 5668 5663 5659 5655 5652 5649 5645 5642 5639 5635 5631 5628 5625 5621 5616 5613 5610 5607 5604 5602 5599 5594 5591 5587 5582 5579 5575 5571 5568 5566 5564 5563 5563 5562 5562 5562 5564 5565 5566 5567 5568 5569 5571 5572 5574 5575 5578 5581 5585 5589 5593 5596 5601 5608 5613 5617 5623 5631 5638 5645 5650 5652 5658 5670 5679 5681 5676 5675 5684 5694 5701 5708 5714 5719 5723 5727 5734 5740 5743 5744 5747 5750 5753
5691 5686 5681 5676 5671 5666 5662 5657 5654 5651 5648 5644 5642 5638 5634 5630 5627 5623 5619 5615 5611 5609 5606 5602 5600 5597 5592 5588 5584 5580 5576 5572 5568 5565 5563 5561 5561 5560 5560 5560 5560 5562 5563 5563 5563 5564 5564 5565 5568 5570 5572 5575 5578 5582 5587 5592 5595 5599 5606 5611 5613 5620 5628 5636 5645 5649 5650 5657 5668 5674 5672 5669 5672 5681 5690 5698 5705 5710 5716 5719 5724 5731 5736 5738 5740 5743 5746 5749
5690 5685 5680 5675 5670 5665 5661 5656 5653 5650 5647 5644 5640 5636 5632 5629 5626 5622 5618 5614 5610 5607 5604 5601 5597 5595 5591 5586 5582 5578 5574 5569 5565 5563 5561 5560 5559 5559 5558 5558 5559 5560 5560 5560 5561 5561 5560 5561 5564 5566 5568 5571 5574 5578 5584 5587 5589 5597 5603 5605 5609 5620 5630 5638 5645 5648 5651 5657 5664 5666 5664 5665 5672 5680 5688 5695 5700 5706 5712 5716 5720 5727 5731 5732 5735 5739 5742 5745
5689 5683 5679 5674 5669 5664 5660 5656 5653 5650 5647 5643 5639 5634 5630 5627 5624 5620 5616 5613 5609 5606 5603 5600 5596 5593 5590 5586 5582 5577 5573 5570 5566 5563 5562 5560 5559 5558 5557 5557 5557 5558 5558 5559 5559 5559 5559 5559 5560 5561 5563 5566 5570 5575 5579 5581 5587 5595 5597 5601 5613 5625 5632 5638 5643 5646 5649 5653 5658 5662 5663 5665 5672 5679 5686 5693 5699 5704 5708 5711 5716 5723 5726 5727 5731 5736 5739 5742
5688 5683 5678 5673 5668 5664 5659 5656 5652 5649 5646 5642 5637 5633 5630 5626 5622 5619 5615 5612 5609 5605 5601 5598 5595 5592 5589 5586 5582 5578 5575 5572 5569 5566 5565 5563 5561 5560 5558 5558 5558 5558 5558 5558 5558 5558 5558 5559 5559 5559 5560 5563 5567 5571 5574 5578 5585 5590 5594 5605 5618 5623 5626 5631 5636 5639 5644 5650 5656 5661 5662 5665 5672 5679 5684 5690 5695 5700 5704 5708 5714 5719 5721 5723 5729 5734 5737 5740
5687 5682 5677 5672 5668 5663 5659 5655 5651 5648 5645 5640 5636 5633 5630 5626 5622 5618 5615 5611 5608 5605 5601 5597 5594 5590 5587 5585 5583 5579 5577 5574 5572 5570 5567 5565 5563 5562 5561 5560 5559 5559 5558 5558 5558 5558 5558 5558 5558 5558 5560 5562 5564 5566 5568 5573 5580 5587 5596 5607 5613 5614 5619 5624 5628 5634 5641 5648 5654 5660 5663 5665 5670 5676 5681 5687 5692 5698 5702 5706 5711 5715 5717 5721 5726 5731 5734 5737
5686 5681 5676 5671 5667 5663 5659 5655 5651 5647 5643 5639 5636 5633 5630 5625 5621 5617 5614 5611 5607 5604 5601 5597 5593 5590 5587 5585 5583 5580 5578 5576 5573 5571 5569 5567 5565 5564 5563 5562 5561 5560 5560 5559 5559 5559 5558 5558 5558 5559 5560 5561 5561 5562 5565 5569 5575 5584 5595 5602 5606 5612 5618 5624 5629 5636 5642 5648 5655 5660 5663 5663 5668 5675 5681 5686 5690 5696 5701 5704 5708 5712 5715 5720 5725 5727 5731 5734
5685 5681 5676 5671 5667 5663 5658 5654 5651 5647 5642 5638 5635 5633 5629 5625 5621 5617 5614 5611 5607 5603 5600 5596 5593 5590 5587 5584 5583 5581 5579 5577 5575 5572 5571 5569 5566 5565 5564 5563 5562 5561 5561 5561 5560 5559 5559 5559 5559 5559 5561 5560 5560 5562 5566 5569 5573 5580 5589 5596 5603 5611 5617 5624 5631 5637 5642 5648 5655 5660 5661 5661 5667 5675 5680 5684 5689 5695 5700 5703 5706 5710 5713 5718 5722 5725 5728 5733
5684 5680 5676 5672 5668 5663 5658 5654 5650 5646 5642 5638 5635 5632 5629 5624 5620 5617 5614 5611 5607 5604 5600 5596 5592 5590 5587 5584 5582 5581 5580 5578 5576 5574 5572 5570 5568 5566 5564 5563 5563 5562 5561 5561 5561 5560 5560 5560 5559 5560 5560 5560 5562 5566 5570 5572 5576 5583 5590 5598 5605 5611 5618 5625 5632 5639 5644 5649 5654 5659 5660 5662 5668 5674 5679 5683 5688 5693 5698 5701 5704 5708 5711 5716 5720 5723 5727 5731
5682 5679 5675 5671 5667 5662 5657 5653 5649 5646 5642 5638 5634 5631 5628 5624 5620 5617 5614 5611 5607 5604 5601 5597 5594 5590 5587 5585 5583 5581 5580 5579 5577 5575 5573 5572 5569 5567 5566 5564 5564 5563 5561 5560 5560 5560 5561 5561 5561 5561 5561 5562 5564 5568 5572 5575 5580 5587 5593 5600 5605 5610 5617 5625 5632 5638 5643 5646 5651 5656 5659 5662 5668 5673 5678 5682 5687 5692 5695 5699 5702 5706 5709 5713 5718 5721 5725 5729
5680 5677 5674 5670 5665 5660 5656 5652 5648 5645 5642 5638 5634 5630 5627 5624 5621 5618 5615 5611 5607 5605 5602 5598 5595 5592 5588 5585 5583 5581 5580 5579 5577 5576 5574 5573 5571 5569 5568 5566 5565 5564 5562 5562 5562 5562 5562 5562 5562 5563 5563 5564 5566 5570 5573 5576 5581 5587 5593 5598 5603 5610 5617 5624 5630 5634 5638 5643 5649 5653 5657 5662 5668 5673 5677 5681 5686 5690 5693 5696 5700 5703 5706 5711 5715 5719 5723 5727
5679 5676 5672 5668 5664 5659 5656 5652 5648 5645 5642 5638 5635 5631 5627 5624 5622 5619 5615 5611 5608 5605 5603 5599 5596 5592 5589 5586 5584 5582 5580 5579 5578 5576 5575 5574 5573 5571 5570 5569 5567 5565 5564 5564 5564 5563 5562 5562 5563 5563 5563 5564 5566 5569 5573 5577 5582 5588 5594 5599 5605 5612 5619 5626 5630 5634 5639 5644 5647 5650 5656 5663 5668 5672 5675 5679 5684 5688 5691 5695 5698 5701 5704 5708 5712 5716 5721 5725
5677 5674 5671 5667 5663 5659 5655 5651 5647 5645 5642 5638 5635 5632 5629 5626 5622 5619 5616 5612 5609 5607 5603 5600 5596 5593 5590 5587 5584 5582 5581 5580 5578 5577 5577 5576 5574 5573 5572 5571 5569 5567 5566 5566 5565 5563 5563 5563 5563 5564 5565 5565 5567 5570 5573 5579 5585 5591 5596 5603 5609 5614 5621 5626 5629 5634 5639 5644 5646 5649 5657 5664 5668 5670 5673 5678 5682 5686 5689 5692 5696 5700 5703 5706 5710 5714 5719 5722
5676 5673 5670 5667 5663 5659 5654 5650 5646 5643 5640 5637 5634 5631 5630 5627 5623 5619 5616 5613 5610 5607 5604 5600 5597 5594 5591 5588 5585 5583 5582 5581 5580 5579 5578 5577 5576 5575 5574 5572 5571 5570 5569 5568 5567 5565 5565 5565 5565 5565 5567 5569 5571 5573 5576 5582 5588 5593 5598 5605 5611 5616 5621 5626 5630 5636 5641 5644 5645 5650 5657 5663 5665 5668 5672 5676 5680 5684 5687 5690 5693 5697 5700 5703 5708 5712 5717 5720
5676 5672 5669 5665 5662 5658 5654 5650 5646 5642 5639 5636 5634 5631 5629 5626 5623 5620 5617 5614 5610 5606 5604 5602 5598 5596 5593 5590 5587 5585 5583 5582 5581 5580 5580 5579 5577 5577 5575 5574 5573 5572 5571 5570 5569 5568 5568 5569 5569 5569 5571 5573 5576 5579 5582 5586 5589 5593 5598 5605 5610 5615 5620 5624 5630 5635 5639 5642 5645 5650 5656 5660 5663 5667 5671 5674 5677 5681 5685 5688 5691 5695 5698 5701 5706 5711 5714 5718
5675 5672 5669 5665 5661 5657 5653 5649 5645 5641 5638 5636 5633 5632 5629 5625 5622 5620 5617 5614 5611 5607 5605 5603 5600 5597 5595 5592 5589 5587 5585 5584 5583 5582 5581 5581 5580 5579 5577 5575 5574 5574 5574 5572 5571 5571 5572 5572 5573 5574 5575 5577 5580 5582 5586 5589 5592 5595 5599 5605 5610 5614 5619 5623 5627 5630 5634 5639 5644 5648 5653 5658 5661 5665 5669 5672 5676 5680 5684 5688 5691 5694 5696 5700 5705 5709 5712 5716
5673 5670 5667 5664 5660 5657 5654 5649 5645 5642 5639 5635 5633 5632 5629 5625 5622 5619 5616 5614 5611 5609 5606 5603 5601 5599 5597 5595 5592 5590 5588 5587 5585 5584 5583 5583 5582 5581 5579 5577 5576 5575 5575 5574 5573 5573 5574 5575 5576 5577 5579 5581 5582 5584 5587 5590 5594 5598 5602 5607 5612 5617 5621 5624 5626 5629 5634 5638 5641 5646 5652 5656 5659 5663 5668 5671 5674 5678 5683 5686 5689 5692 5695 5699 5703 5706 5710 5714
5672 5669 5666 5662 5659 5656 5653 5649 5645 5641 5638 5635 5633 5631 5629 5626 5623 5619 5616 5614 5612 5609 5607 5604 5602 5600 5598 5597 5595 5592 5591 5590 5588 5586 5585 5585 5584 5583 5582 5580 5578 5578 5577 5576 5576 5576 5576 5577 5578 5579 5581 5583 5585 5586 5589 5592 5595 5599 5604 5609 5614 5620 5624 5627 5629 5632 5637 5641 5643 5646 5651 5655 5658 5663 5667 5670 5673 5677 5680 5683 5687 5690 5693 5697 5701 5704 5708 5712
5672 5669 5666 5662 5658 5655 5652 5649 5645 5641 5638 5635 5633 5631 5629 5627 5624 5620 5616 5614 5612 5610 5608 5605 5604 5602 5600 5598 5596 5594 5593 5591 5589 5588 5587 5586 5585 5585 5584 5583 5581 5580 5580 5579 5578 5578 5578 5579 5580 5581 5583 5585 5586 5588 5591 5594 5598 5602 5607 5611 5617 5622 5625 5628 5631 5634 5638 5642 5644 5647 5650 5654 5658 5662 5666 5670 5673 5676 5679 5682 5686 5689 5693 5697 5700 5703 5706 5710
5671 5668 5665 5662 5658 5654 5651 5648 5645 5641 5638 5635 5633 5630 5628 5626 5624 5621 5618 5616 5613 5610 5608 5606 5605 5603 5601 5599 5597 5595 5594 5592 5590 5589 5588 5588 5587 5587 5586 5585 5583 5583 5582 5581 5580 5580 5581 5582 5583 5584 5585 5587 5589 5590 5593 5597 5601 5606 5609 5612 5617 5621 5624 5628 5632 5636 5639 5640 5642 5645 5649 5653 5658 5662 5666 5670 5672 5676 5679 5682 5685 5689 5693 5697 5700 5702 5705 5708